| time (UTC) | temp F | wind direction | speed MPH | gust MPH | rain 1hr in | rain 24hr in | rain mn in | humidity % | barometer mb |
| 20260505001743 | 0 | 204 | 2.0 | 5.0 | 0.00 | 0.00 | 0.00 | 1010.9 | |
| 20260505001240 | 0 | 204 | 2.0 | 6.0 | 0.00 | 0.00 | 0.00 | 1011.0 | |
| 20260505000737 | 0 | 157 | 1.0 | 5.0 | 0.00 | 0.00 | 0.00 | 1010.9 | |
| 20260505000235 | 0 | 224 | 0.0 | 6.0 | 0.00 | 0.00 | 0.00 | 1011.0 | |
| 20260504235731 | 0 | 175 | 3.0 | 7.0 | 0.00 | 0.00 | 0.00 | 1010.9 | |
| 20260504235228 | 0 | 222 | 3.0 | 4.0 | 0.00 | 0.00 | 0.00 | 1011.2 | |
| 20260504234725 | 0 | 223 | 3.0 | 5.0 | 0.00 | 0.00 | 0.00 | 1011.1 | |
| 20260504234222 | 0 | 243 | 2.0 | 6.0 | 0.00 | 0.00 | 0.00 | 1011.2 | |
| 20260504233718 | 0 | 149 | 4.0 | 4.0 | 0.00 | 0.00 | 0.00 | 1011.2 | |
| 20260504233214 | 0 | 220 | 3.0 | 4.0 | 0.00 | 0.00 | 0.00 | 1011.3 | |
| 20260504232712 | 0 | 116 | 1.0 | 8.0 | 0.00 | 0.00 | 0.00 | 1011.3 | |
| 20260504232208 | 0 | 233 | 2.0 | 4.0 | 0.00 | 0.00 | 0.00 | 1011.5 | |
| 20260504231705 | 0 | 222 | 2.0 | 11.0 | 0.00 | 0.00 | 0.00 | 1011.7 | |
| 20260504231201 | 0 | 148 | 1.0 | 3.0 | 0.00 | 0.00 | 0.00 | 1011.3 | |
| 20260504230657 | 0 | 272 | 2.0 | 5.0 | 0.00 | 0.00 | 0.00 | 1011.5 | |
| 20260504230156 | 0 | 240 | 1.0 | 7.0 | 0.00 | 0.00 | 0.00 | 1011.6 | |
| 20260504225655 | 0 | 209 | 2.0 | 3.0 | 0.00 | 0.00 | 0.00 | 1011.7 | |
| 20260504225150 | 0 | 131 | 3.0 | 4.0 | 0.00 | 0.00 | 0.00 | 1011.4 | |
| 20260504224647 | 0 | 213 | 1.0 | 4.0 | 0.00 | 0.00 | 0.00 | 1011.7 | |
| 20260504224144 | 0 | 238 | 2.0 | 5.0 | 0.00 | 0.00 | 0.00 | 1011.5 | |
| 20260504223642 | 0 | 204 | 2.0 | 2.0 | 0.00 | 0.00 | 0.00 | 1011.8 | |
| 20260504223137 | 0 | 138 | 3.0 | 5.0 | 0.00 | 0.00 | 0.00 | 1011.9 | |
| 20260504222634 | 0 | 203 | 3.0 | 4.0 | 0.00 | 0.00 | 0.00 | 1011.8 | |
| 20260504222131 | 0 | 200 | 1.0 | 5.0 | 0.00 | 0.00 | 0.00 | 1011.8 | |
| 20260504221628 | 0 | 199 | 3.0 | 9.0 | 0.00 | 0.00 | 0.00 | 1012.0 | |
| 20260504221120 | 0 | 207 | 2.0 | 6.0 | 0.00 | 0.00 | 0.00 | 1012.1 | |
| 20260504220616 | 0 | 214 | 2.0 | 6.0 | 0.00 | 0.00 | 0.00 | 1012.0 | |
| 20260504220114 | 0 | 159 | 2.0 | 6.0 | 0.00 | 0.00 | 0.00 | 1011.9 | |
| 20260504215610 | 0 | 205 | 2.0 | 3.0 | 0.00 | 0.00 | 0.00 | 1012.1 | |
| 20260504215108 | 0 | 215 | 2.0 | 4.0 | 0.00 | 0.00 | 0.00 | 1012.1 | |
| 20260504214603 | 0 | 226 | 1.0 | 4.0 | 0.00 | 0.00 | 0.00 | 1012.0 | |
| 20260504214100 | 0 | 210 | 2.0 | 9.0 | 0.00 | 0.00 | 0.00 | 1012.0 | |
| 20260504213556 | 0 | 255 | 3.0 | 5.0 | 0.00 | 0.00 | 0.00 | 1012.0 | |
| 20260504213053 | 0 | 232 | 4.0 | 6.0 | 0.00 | 0.00 | 0.00 | 1012.3 | |
| 20260504212549 | 0 | 237 | 1.0 | 5.0 | 0.00 | 0.00 | 0.00 | 1012.4 | |
| 20260504212047 | 0 | 234 | 2.0 | 4.0 | 0.00 | 0.00 | 0.00 | 1012.7 | |
| 20260504211543 | 0 | 250 | 4.0 | 7.0 | 0.00 | 0.00 | 0.00 | 1012.7 | |
| 20260504211040 | 0 | 269 | 2.0 | 3.0 | 0.00 | 0.00 | 0.00 | 1012.6 | |
| 20260504210537 | 0 | 230 | 3.0 | 4.0 | 0.00 | 0.00 | 0.00 | 1013.0 | |
| 20260504210034 | 0 | 214 | 2.0 | 3.0 | 0.00 | 0.00 | 0.00 | 1012.9 | |
| 20260504205532 | 0 | 201 | 3.0 | 4.0 | 0.00 | 0.00 | 0.00 | 1013.2 | |
| 20260504205030 | 0 | 207 | 3.0 | 7.0 | 0.00 | 0.00 | 0.00 | 1013.5 | |
| 20260504204527 | 0 | 208 | 3.0 | 5.0 | 0.00 | 0.00 | 0.00 | 1013.6 | |
| 20260504204026 | 0 | 212 | 3.0 | 4.0 | 0.00 | 0.00 | 0.00 | 1013.1 | |
| 20260504203523 | 0 | 238 | 1.0 | 5.0 | 0.00 | 0.00 | 0.00 | 1013.5 | |
| 20260504203020 | 0 | 219 | 1.0 | 4.0 | 0.00 | 0.00 | 0.00 | 1013.5 | |
| 20260504202516 | 0 | 255 | 0.0 | 5.0 | 0.00 | 0.00 | 0.00 | 1013.8 | |
| 20260504202013 | 0 | 234 | 1.0 | 4.0 | 0.00 | 0.00 | 0.00 | 1013.6 | |
| 20260504201510 | 0 | 216 | 3.0 | 5.0 | 0.00 | 0.00 | 0.00 | 1013.8 | |
| 20260504201008 | 0 | 251 | 2.0 | 4.0 | 0.00 | 0.00 | 0.00 | 1013.9 | |
| 20260504200504 | 0 | 160 | 2.0 | 6.0 | 0.00 | 0.00 | 0.00 | 1014.1 | |
| 20260504200001 | 0 | 212 | 2.0 | 9.0 | 0.00 | 0.00 | 0.00 | 1014.1 | |
| 20260504195457 | 0 | 98 | 0.0 | 5.0 | 0.00 | 0.00 | 0.00 | 1014.2 | |
| 20260504194953 | 0 | 213 | 0.0 | 4.0 | 0.00 | 0.00 | 0.00 | 1014.4 | |
| 20260504194449 | 0 | 199 | 2.0 | 5.0 | 0.00 | 0.00 | 0.00 | 1014.4 | |
| 20260504193945 | 0 | 224 | 3.0 | 7.0 | 0.00 | 0.00 | 0.00 | 1014.7 | |
| 20260504193443 | 0 | 196 | 3.0 | 4.0 | 0.00 | 0.00 | 0.00 | 1014.6 | |
| 20260504192942 | 0 | 149 | 7.0 | 9.0 | 0.00 | 0.00 | 0.00 | 1014.7 | |
| 20260504192438 | 0 | 147 | 3.0 | 9.0 | 0.00 | 0.00 | 0.00 | 1014.9 | |
| 20260504191937 | 0 | 95 | 0.0 | 8.0 | 0.00 | 0.00 | 0.00 | 1015.0 | |
| 20260504191436 | 0 | 220 | 2.0 | 9.0 | 0.00 | 0.00 | 0.00 | 1015.0 | |
| 20260504190936 | 0 | 218 | 2.0 | 5.0 | 0.00 | 0.00 | 0.00 | 1014.9 | |
| 20260504190432 | 0 | 191 | 1.0 | 3.0 | 0.00 | 0.00 | 0.00 | 1015.2 | |
| 20260504185929 | 0 | 189 | 2.0 | 10.0 | 0.00 | 0.00 | 0.00 | 1015.1 | |
| 20260504185426 | 0 | 208 | 2.0 | 7.0 | 0.00 | 0.00 | 0.00 | 1015.2 | |
| 20260504184922 | 0 | 221 | 3.0 | 4.0 | 0.00 | 0.00 | 0.00 | 1015.2 | |
| 20260504184418 | 0 | 225 | 3.0 | 5.0 | 0.00 | 0.00 | 0.00 | 1015.2 | |
| 20260504183914 | 0 | 225 | 3.0 | 6.0 | 0.00 | 0.00 | 0.00 | 1015.4 | |
| 20260504183411 | 0 | 163 | 3.0 | 6.0 | 0.00 | 0.00 | 0.00 | 1015.5 | |
| 20260504182909 | 0 | 239 | 2.0 | 5.0 | 0.00 | 0.00 | 0.00 | 1015.6 | |
| 20260504182406 | 0 | 214 | 2.0 | 6.0 | 0.00 | 0.00 | 0.00 | 1015.5 | |
| 20260504181903 | 0 | 172 | 3.0 | 9.0 | 0.00 | 0.00 | 0.00 | 1015.7 | |
| 20260504181400 | 0 | 224 | 3.0 | 4.0 | 0.00 | 0.00 | 0.00 | 1015.7 | |
| 20260504180859 | 0 | 236 | 2.0 | 7.0 | 0.00 | 0.00 | 0.00 | 1015.7 | |
| 20260504180357 | 0 | 216 | 3.0 | 6.0 | 0.00 | 0.00 | 0.00 | 1015.9 | |
| 20260504175855 | 0 | 222 | 3.0 | 9.0 | 0.00 | 0.00 | 0.00 | 1016.2 | |
| 20260504175351 | 0 | 217 | 3.0 | 3.0 | 0.00 | 0.00 | 0.00 | 1016.2 | |
| 20260504174849 | 0 | 217 | 3.0 | 4.0 | 0.00 | 0.00 | 0.00 | 1016.3 | |
| 20260504174347 | 0 | 216 | 1.0 | 9.0 | 0.00 | 0.00 | 0.00 | 1016.4 | |
| 20260504173844 | 0 | 261 | 2.0 | 3.0 | 0.00 | 0.00 | 0.00 | 1016.2 | |
| 20260504173340 | 0 | 226 | 2.0 | 6.0 | 0.00 | 0.00 | 0.00 | 1016.5 | |
| 20260504172837 | 0 | 221 | 2.0 | 6.0 | 0.00 | 0.00 | 0.00 | 1016.4 | |
| 20260504172334 | 0 | 165 | 2.0 | 7.0 | 0.00 | 0.00 | 0.00 | 1016.6 | |
| 20260504171830 | 0 | 256 | 4.0 | 7.0 | 0.00 | 0.00 | 0.00 | 1017.0 | |
| 20260504171327 | 0 | 237 | 4.0 | 5.0 | 0.00 | 0.00 | 0.00 | 1016.9 | |
| 20260504170824 | 0 | 199 | 2.0 | 8.0 | 0.00 | 0.00 | 0.00 | 1017.1 | |
| 20260504170321 | 0 | 264 | 2.0 | 5.0 | 0.00 | 0.00 | 0.00 | 1017.2 | |
| 20260504160239 | 0 | 225 | 3.0 | 6.0 | 0.00 | 0.00 | 0.00 | 1017.4 | |
| 20260504150705 | 0 | 172 | 2.0 | 8.0 | 0.00 | 0.00 | 0.00 | 1017.8 | |
| 20260504150201 | 0 | 193 | 2.0 | 5.0 | 0.00 | 0.00 | 0.00 | 1017.9 | |
| 20260504141131 | 0 | 142 | 5.0 | 8.0 | 0.00 | 0.00 | 0.00 | 1018.2 | |
| 20260504140627 | 0 | 230 | 2.0 | 9.0 | 0.00 | 0.00 | 0.00 | 1018.1 | |
| 20260504140123 | 0 | 212 | 3.0 | 5.0 | 0.00 | 0.00 | 0.00 | 1018.1 | |
| 20260504130551 | 0 | 199 | 2.0 | 7.0 | 0.00 | 0.00 | 0.00 | 1018.1 | |
| 20260504110439 | 0 | 156 | 0.0 | 3.0 | 0.00 | 0.00 | 0.00 | 1017.6 | |
| 20260504100355 | 0 | 155 | 0.0 | 2.0 | 0.00 | 0.00 | 0.00 | 1017.9 | |
| 20260504081748 | 0 | 191 | 3.0 | 5.0 | 0.00 | 0.00 | 0.00 | 1018.1 | |
| 20260504081245 | 0 | 207 | 1.0 | 3.0 | 0.00 | 0.00 | 0.00 | 1018.5 | |
| 20260504080741 | 0 | 160 | 0.0 | 3.0 | 0.00 | 0.00 | 0.00 | 1018.5 | |
| 20260504080238 | 0 | 153 | 3.0 | 4.0 | 0.00 | 0.00 | 0.00 | 1018.2 | |
| 20260504070205 | 0 | 192 | 2.0 | 6.0 | 0.00 | 0.00 | 0.00 | 1019.5 | |
| 20260504060126 | 0 | 160 | 2.0 | 10.0 | 0.00 | 0.00 | 0.00 | 1020.1 | |
| 20260504050554 | 0 | 196 | 0.0 | 4.0 | 0.00 | 0.00 | 0.00 | 1020.3 | |
| 20260504045548 | 0 | 83 | 0.0 | 3.0 | 0.00 | 0.00 | 0.00 | 1020.3 | |
| 20260504045043 | 0 | 117 | 0.0 | 3.0 | 0.00 | 0.00 | 0.00 | 1020.1 | |
| 20260504044541 | 0 | 214 | 0.0 | 3.0 | 0.00 | 0.00 | 0.00 | 1020.5 | |
| 20260504044038 | 0 | 172 | 0.0 | 5.0 | 0.00 | 0.00 | 0.00 | 1020.5 | |
| 20260504043534 | 0 | 158 | 0.0 | 2.0 | 0.00 | 0.00 | 0.00 | 1020.5 | |
| 20260504043032 | 0 | 145 | 0.0 | 7.0 | 0.00 | 0.00 | 0.00 | 1020.5 | |
| 20260504042529 | 0 | 215 | 3.0 | 4.0 | 0.00 | 0.00 | 0.00 | 1020.5 | |
| 20260504042026 | 0 | 159 | 0.0 | 4.0 | 0.00 | 0.00 | 0.00 | 1020.5 | |
| 20260504041522 | 0 | 193 | 2.0 | 4.0 | 0.00 | 0.00 | 0.00 | 1020.5 | |
| 20260504041018 | 0 | 167 | 2.0 | 4.0 | 0.00 | 0.00 | 0.00 | 1020.4 | |
| 20260504040516 | 0 | 153 | 2.0 | 2.0 | 0.00 | 0.00 | 0.00 | 1020.4 | |
| 20260504040013 | 0 | 142 | 0.0 | 2.0 | 0.00 | 0.00 | 0.00 | 1020.5 | |
| 20260504035509 | 0 | 131 | 1.0 | 1.0 | 0.00 | 0.00 | 0.00 | 1020.5 | |
| 20260504035005 | 0 | 130 | 0.0 | 1.0 | 0.00 | 0.00 | 0.00 | 1020.4 | |
| 20260504034503 | 0 | 89 | 0.0 | 2.0 | 0.00 | 0.00 | 0.00 | 1020.7 | |
| 20260504034000 | 0 | 205 | 0.0 | 1.0 | 0.00 | 0.00 | 0.00 | 1020.7 | |
| 20260504033457 | 0 | 224 | 0.0 | 1.0 | 0.00 | 0.00 | 0.00 | 1020.6 | |
| 20260504032955 | 0 | 126 | 0.0 | 1.0 | 0.00 | 0.00 | 0.00 | 1020.3 | |
| 20260504032452 | 0 | 125 | 0.0 | 2.0 | 0.00 | 0.00 | 0.00 | 1020.3 | |
| 20260504031948 | 0 | 150 | 0.0 | 2.0 | 0.00 | 0.00 | 0.00 | 1020.3 | |
| 20260504031445 | 0 | 224 | 0.0 | 1.0 | 0.00 | 0.00 | 0.00 | 1020.5 | |
| 20260504030942 | 0 | 50 | 0.0 | 2.0 | 0.00 | 0.00 | 0.00 | ||
| 20260504030439 | 0 | 104 | 0.0 | 2.0 | 0.00 | 0.00 | 0.00 | ||
| 20260504025935 | 0 | 142 | 0.0 | 2.0 | 0.00 | 0.00 | 0.00 | ||
| 20260504025432 | 0 | 154 | 0.0 | 0.0 | 0.00 | 0.00 | 0.00 | ||
| 20260504024929 | 0 | 217 | 0.0 | 2.0 | 0.00 | 0.00 | 0.00 | ||
| 20260504024426 | 0 | 89 | 0.0 | 1.0 | 0.00 | 0.00 | 0.00 | ||
| 20260504023923 | 0 | 199 | 0.0 | 2.0 | 0.00 | 0.00 | 0.00 | ||
| 20260504023419 | 0 | 163 | 0.0 | 1.0 | 0.00 | 0.00 | 0.00 | ||
| 20260504022915 | 0 | 219 | 0.0 | 1.0 | 0.00 | 0.00 | 0.00 | ||
| 20260504022412 | 0 | 135 | 0.0 | 1.0 | 0.00 | 0.00 | 0.00 | ||
| 20260504021908 | 0 | 235 | 0.0 | 1.0 | 0.00 | 0.00 | 0.00 | 1019.5 | |
| 20260504021406 | 0 | 117 | 0.0 | 1.0 | 0.00 | 0.00 | 0.00 | 1019.5 | |
| 20260504020903 | 0 | 136 | 0.0 | 1.0 | 0.00 | 0.00 | 0.00 | 1019.5 | |
| 20260504020359 | 0 | 217 | 0.0 | 1.0 | 0.00 | 0.00 | 0.00 | 1019.5 | |
| 20260504015855 | 0 | 117 | 0.0 | 1.0 | 0.00 | 0.00 | 0.00 | 1019.5 | |
| 20260504015352 | 0 | 212 | 0.0 | 1.0 | 0.00 | 0.00 | 0.00 | 1019.5 | |
| 20260504014848 | 0 | 117 | 0.0 | 1.0 | 0.00 | 0.00 | 0.00 | 1019.5 | |
| 20260504014344 | 0 | 297 | 0.0 | 1.0 | 0.00 | 0.00 | 0.00 | 1019.5 | |
| 20260504013842 | 0 | 245 | 0.0 | 1.0 | 0.00 | 0.00 | 0.00 | 1019.5 | |
| 20260504013339 | 0 | 309 | 0.0 | 1.0 | 0.00 | 0.00 | 0.00 | 1019.5 | |
| 20260504012836 | 0 | 142 | 0.0 | 1.0 | 0.00 | 0.00 | 0.00 | 1019.5 | |
| 20260504012334 | 0 | 164 | 0.0 | 0.0 | 0.00 | 0.00 | 0.00 | 1019.5 | |
| 20260504011831 | 0 | 124 | 0.0 | 1.0 | 0.00 | 0.00 | 0.00 | 1019.2 | |
| 20260504011327 | 0 | 173 | 0.0 | 1.0 | 0.00 | 0.00 | 0.00 | 1019.2 | |
| 20260504010823 | 0 | 235 | 0.0 | 1.0 | 0.00 | 0.00 | 0.00 | 1019.2 | |
| 20260504010319 | 0 | 205 | 0.0 | 1.0 | 0.00 | 0.00 | 0.00 | 1019.2 | |
| 20260504005816 | 0 | 230 | 0.0 | 6.0 | 0.00 | 0.00 | 0.00 | 1019.2 | |
| 20260504005313 | 0 | 148 | 2.0 | 4.0 | 0.00 | 0.00 | 0.00 | 1019.2 | |
| 20260504004810 | 0 | 256 | 0.0 | 1.0 | 0.00 | 0.00 | 0.00 | 1019.2 | |
| 20260504004308 | 0 | 227 | 1.0 | 2.0 | 0.00 | 0.00 | 0.00 | 1019.5 | |
| 20260504003804 | 0 | 222 | 1.0 | 3.0 | 0.00 | 0.00 | 0.00 | 1019.5 | |
| 20260504003301 | 0 | 196 | 0.0 | 4.0 | 0.00 | 0.00 | 0.00 | 1019.5 | |
| 20260504002757 | 0 | 185 | 0.0 | 2.0 | 0.00 | 0.00 | 0.00 | 1019.5 | |
| 20260504002255 | 0 | 186 | 0.0 | 1.0 | 0.00 | 0.00 | 0.00 | 1019.9 |